Regional Weather Roundup
Issued by NWS

Home | Current Version | Previous Version | Text Only | Print | Product List | Glossary Off
Versions: 1 2 3 4 5 6 7 8 9 10 11 12 13 14 15 16 17 18 19 20 21 22 23 24 25 26 27 28 29 30 31 32 33 34 35 36 37 38 39 40 41 42 43 44 45 46 47 48 49 50

000
ASUS43 KMKX 241221
RWRWI

WISCONSIN REGIONAL WEATHER ROUNDUP
NATIONAL WEATHER SERVICE MILWAUKEE/SULLIVAN WI
600 AM CST FRI FEB 24 2017

NOTE: "FAIR" INDICATES FEW OR NO CLOUDS BELOW 12,000 FEET WITH NO
SIGNIFICANT WEATHER AND/OR OBSTRUCTIONS TO VISIBILITY.

WIZ001-002-006>008-014>016-023>028-241300-
NORTHWEST WISCONSIN

CITY           SKY/WX    TMP DP  RH WIND       PRES   REMARKS
SUPERIOR ARPT  CLOUDY    22  13  69 NE13      29.98F WCI  10
6HR MIN TEMP:  22; 6HR MAX TEMP:  25;

ASHLAND        LGT SNOW  25  20  81 NE17G25   29.95R WCI  12
6HR MIN TEMP:  25; 6HR MAX TEMP:  28; 6HR PCP: TRACE;

HAYWARD        CLOUDY    25  19  78 NE14G26   29.87F WCI  13
6HR MIN TEMP:  25; 6HR MAX TEMP:  27;

SIREN          CLOUDY    24  17  72 N12       29.88F WCI  13
6HR MIN TEMP:  24; 6HR MAX TEMP:  27;

CUMBERLAND     CLOUDY    27  18  69 N12G18    29.81F WCI  16
RICE LAKE      LGT SNOW  28  23  81 N16       29.82F VSB 1   WCI  16
6HR MIN TEMP:  28; 6HR MAX TEMP:  29;

CHETEK         LGT SNOW  26  25  94 NE7       29.80F VSB 3/4 WCI  18
6HR MIN TEMP:  26; 6HR MAX TEMP:  30; 6HR PCP:  0.02;

LADYSMITH      LGT SNOW  27  24  88 N10       29.82F VSB 3/4 WCI  18
6HR MIN TEMP:  27; 6HR MAX TEMP:  30;

EAU CLAIRE     LGT SNOW  27  26  96 NE9       29.76F VSB 3/4 WCI  18
6HR MIN TEMP:  27; 6HR MAX TEMP:  31; 6HR PCP:  0.46;

MENOMONIE      LGT SNOW  28  26  96 N12       29.78F WCI  17
6HR MIN TEMP:  28; 6HR MAX TEMP:  32; 6HR PCP:  0.13;

NEW RICHMOND   CLOUDY    27  18  69 N16       29.81F WCI  15
6HR MIN TEMP:  27; 6HR MAX TEMP:  29;

OSCEOLA        CLOUDY    27  18  70 N12G18    29.86F WCI  16
6HR MIN TEMP:  27; 6HR MAX TEMP:  29;

$$

WIZ003>005-009-010-017-018-241300-
NORTH CENTRAL WISCONSIN

CITY           SKY/WX    TMP DP  RH WIND       PRES   REMARKS
MANITOWISH WTR CLOUDY    22  22 100 NE14      29.88R WCI   9
6HR MIN TEMP:  22; 6HR MAX TEMP:  25;

ARBOR VITAE    CLOUDY    24  22  91 NE12G17     N/A  WCI  13
6HR MIN TEMP:  24; 6HR MAX TEMP:  28;

WOODRUFF       CLOUDY    24  22  91 NE12G17     N/A  WCI  13
6HR MIN TEMP:  24; 6HR MAX TEMP:  28;

RHINELANDER    SNOW      27  25  92 NE10G18   29.78R VSB 1/2 WCI  17
6HR MIN TEMP:  27; 6HR MAX TEMP:  29; 6HR PCP:  0.09;

EAGLE RIVER    LGT SNOW  24  23  96 NE8G21    29.85R WCI  14
6HR MIN TEMP:  24; 6HR MAX TEMP:  27;

LAND O LAKES   CLOUDY    23  21  94 NE13G22   29.82F WCI  11
6HR MIN TEMP:  23; 6HR MAX TEMP:  26;

PHILLIPS       LGT SNOW  25  24  96 N15       29.79F VSB 3/4 WCI  12
6HR MIN TEMP:  25; 6HR MAX TEMP:  27;

TOMAHAWK       LGT SNOW  26  24  91 N8        29.79R VSB 3/4 WCI  18
6HR MIN TEMP:  26; 6HR MAX TEMP:  28;

MEDFORD        HVY SNOW  26  24  95 N14G20    29.74F VSB 1/4 WCI  14
6HR MIN TEMP:  26; 6HR MAX TEMP:  28; 6HR PCP:  0.07;

MERRILL        NOT AVBL
$$

WIZ029-030-035-036-043>047-241300-
CENTRAL WISCONSIN

CITY           SKY/WX    TMP DP  RH WIND       PRES   REMARKS
WAUSAU         SNOW      27  25  92 N9        29.73F VSB 1/2 WCI  18
6HR MIN TEMP:  27; 6HR MAX TEMP:  33; 6HR PCP:  0.33;

MOSINEE        TSTM      27  27 100 N12G17    29.75F VSB 1/2 WCI  16
MARSHFIELD     FOG       27  24  89 NE10      29.72F VSB 1   WCI  17
6HR MIN TEMP:  27; 6HR MAX TEMP:  31; 6HR PCP:  0.27;

STEVENS POINT  MIX PCPN  26  26  99 NE8       29.74F VSB 1/2 WCI  18
6HR MIN TEMP:  26; 6HR MAX TEMP:  31; 6HR PCP:  0.08;

WAUPACA        LGT SNOW  31  28  86 NE13      29.72R WCI  21
6HR MIN TEMP:  31; 6HR MAX TEMP:  36; 6HR PCP:  0.10;

WAUTOMA        LGT SNOW  28  27  93 NE13      29.69R FOG     WCI  18
6HR MIN TEMP:  29; 6HR MAX TEMP:  32; 6HR PCP:  0.12;

WISC RAPIDS    LGT SNOW  29  27  92 NE13      29.72F FOG     WCI  19
6HR MIN TEMP:  28; 6HR MAX TEMP:  34; 6HR PCP:  0.28;

CAMP DOUGLAS   LGT SNOW  29  27  92 N9        29.70S FOG     WCI  20
6HR MIN TEMP:  29; 6HR MAX TEMP:  33; 6HR PCP:  0.26;

$$

WIZ011>013-019>022-031-037>040-048>050-241300-
NORTHEAST WISCONSIN

CITY           SKY/WX    TMP DP  RH WIND       PRES   REMARKS
ANTIGO         LGT SNOW  26  24  93 N8        29.76R WCI  17
6HR MIN TEMP:  25; 6HR MAX TEMP:  30; 6HR PCP:  0.08;

SHAWANO        CLOUDY    31  27  86 N16       29.79R WCI  20
6HR MIN TEMP:  30; 6HR MAX TEMP:  34; 6HR PCP:  0.03;

OCONTO         CLOUDY    28  27  93 NE14G21   29.71F WCI  17
6HR MIN TEMP:  28; 6HR MAX TEMP:  32; 6HR PCP:  0.05;

STURGEON BAY   LGT SNOW  30  28  93 NE22G32   29.69F FOG     WCI  17
6HR MIN TEMP:  29; 6HR MAX TEMP:  33; 6HR PCP:  0.06;

GREEN BAY      LGT SNOW  30  30 100 NE24      29.67F FOG     WCI  16
6HR MIN TEMP:  30; 6HR MAX TEMP:  34; 6HR PCP:  0.15;

MANITOWOC      MIX PCPN  32  29  88 NE21G29   29.66F WCI  20
6HR MIN TEMP:  32; 6HR MAX TEMP:  33; 6HR PCP:  0.03;

APPLETON       LGT RAIN  30  27  86 NE15G28   29.69R WCI  19
CLINTONVILLE   LGT SNOW  30  27  86 N14G21    29.74R WCI  20
OSHKOSH        MIX PCPN  31  27  85 NE23G33   29.61F FOG     WCI  18
6HR MIN TEMP:  30; 6HR MAX TEMP:  32; 6HR PCP:  0.16;

$$

WIZ032>034-041-042-053>061-241300-
SOUTHWEST WISCONSIN

CITY           SKY/WX    TMP DP  RH WIND       PRES   REMARKS
LA CROSSE      LGT SNOW  31  28  89 N15       29.69F FOG     WCI  20
6HR MIN TEMP:  32; 6HR MAX TEMP:  35; 6HR PCP:  0.25;

SPARTA         LGT SNOW  30  29  97 NE6       29.70F WCI  24
6HR MIN TEMP:  30; 6HR MAX TEMP:  34;

VIROQUA        CLOUDY    29  28  96 NE22G29   29.62F WCI  16
6HR MIN TEMP:  29; 6HR MAX TEMP:  33; 6HR PCP:  0.15;

BOSCOBEL       CLOUDY    33  29  85 NE12G24   29.61F WCI  24
6HR MIN TEMP:  33; 6HR MAX TEMP:  35; 6HR PCP:  0.27;

PRAIRIE DU CHI MIX PCPN  32  31  98 N10G17    29.60F WCI  24
6HR MIN TEMP:  32; 6HR MAX TEMP:  33; 6HR PCP:  0.15;

PLATTEVILLE    CLOUDY    33  33 100 NE12G22   29.53S WCI  24
6HR MIN TEMP:  33; 6HR MAX TEMP:  34; 6HR PCP:  0.08;

$$

WIZ056-057-062-063-064-067-068-241300-
SOUTH CENTRAL WISCONSIN

CITY           SKY/WX    TMP DP  RH WIND       PRES   REMARKS
REEDSBURG      DRIZZLE   29  29 100 N10       29.64F WCI  20
BARABOO/DELLS  CLOUDY    29  28  96 NE10      29.62F FOG     WCI  20
6HR MIN TEMP:  29; 6HR MAX TEMP:  32; 6HR PCP:  0.17;

LONE ROCK      LGT SNOW  32  28  85 NE15G23   29.61F FOG     WCI  22
6HR MIN TEMP:  32; 6HR MAX TEMP:  34; 6HR PCP:  0.15;

MINERAL POINT  CLOUDY    32  32 100 NE8       29.52F WCI  25
MADISON        LGT RAIN  32  30  92 NE17      29.57F FOG     WCI  21
6HR MIN TEMP:  32; 6HR MAX TEMP:  33; 6HR PCP:  0.37;

MIDDLETON      CLOUDY    33  33 100 NE10      29.58F WCI  25
6HR MIN TEMP:  33; 6HR MAX TEMP:  34; 6HR PCP:  0.23;

WATERTOWN      MIX PCPN  33  33 100 NE14G20   29.57S WCI  23
6HR MIN TEMP:  33; 6HR MAX TEMP:  33; 6HR PCP:  0.30;

MONROE         CLOUDY    32  32 100 NE20G26   29.51F WCI  20
JANESVILLE     CLOUDY    36  36 100 E12G17    29.53S WCI  27
$$

WIZ051-052-058>065-066-070>072-241300-
SOUTHEAST WISCONSIN

CITY           SKY/WX    TMP DP  RH WIND       PRES   REMARKS
MILWAUKEE      LGT RAIN  36  33  89 NE17G29   29.59R FOG     WCI  26
6HR MIN TEMP:  35; 6HR MAX TEMP:  39; 6HR PCP:  0.85;

WAUKESHA       LGT RAIN  30  30 100 NE21G35   29.59F FOG     WCI  17
MILWAUKEE/TIMM LGT RAIN  32  32 100 NE14G31   29.59F WCI  22
RACINE         LGT SNOW  36  34  92 NE22G30   29.58F FOG     WCI  25
6HR MIN TEMP:  36; 6HR MAX TEMP:  37; 6HR PCP:  0.30;

KENOSHA        LGT RAIN  37  34  89 NE22      29.55F WCI  26
6HR MIN TEMP:  36; 6HR MAX TEMP:  37; 6HR PCP:  0.21;

FOND DU LAC    RAIN      32  27  81 NE15      29.63S WCI  22
6HR MIN TEMP:  32; 6HR MAX TEMP:  33; 6HR PCP:  0.26;

SHEBOYGAN      FRZ RAIN  32  32 100 NE31G40   29.62F WCI  17
6HR MIN TEMP:  32; 6HR MAX TEMP:  33; 6HR PCP:  0.37;

WEST BEND      MIX PCPN  32  32 100 NE13G24   29.59F WCI  22
JUNEAU         MIX PCPN  32  30  92 NE13G18   29.60R WCI  22
6HR MIN TEMP:  32; 6HR MAX TEMP:  32; 6HR PCP:  0.11;

$$

LSZ147-162-241300-
LAKE SUPERIOR

STATION/POSITION TIME  TEMP    WIND        PRES    WAVE
                       AIR SEA DIR/SP/G            HT/PER
                 (UTC) (F)     (DEG/KT/KT) (MB)    (FT/S)
DEVILS ISLAND    1200   23      40/ 24/ 27 1016.6R
PORT WING        1140   25      50/ 17/ 25 1015.2R
SAXON HARBOR     1130   27      50/ 24/ 29 1013.5R
$$

LMZ867-665-643>646-241300-
LAKE MICHIGAN

STATION/POSITION TIME  TEMP    WIND        PRES    WAVE
                       AIR SEA DIR/SP/G            HT/PER
                 (UTC) (F)     (DEG/KT/KT) (MB)    (FT/S)
CHAMBERS ISLAND  1140   29      20/ 23/ 31 1007.5F
NORTHPORT PIER   1200   30      50/ 19     1007.8
SISTER BAY       1050   29      20/  5/ 12   N/A
KEWAUNEE LAKESHO 1154   33      60



USA.gov is the U.S. government's official web portal to all federal, state and local government web resources and services.